Weather History for PAFB - July, 2013

Change the Weather History Date:

Monday, July 8, 2013

  Actual Average Record
Temperature  
Mean Temperature 56 °F -  
Max Temperature 64 °F 70 °F 82 °F (2003)
Min Temperature 48 °F 54 °F 46 °F (1998)
Degree Days  
Heating Degree Days 9    
Growing Degree Days 6 (Base 50)    
Moisture  
Dew Point 49 °F    
Average Humidity 77    
Maximum Humidity 94    
Minimum Humidity 52    
Precipitation  
Precipitation 0.01 in - - ()
Sea Level Pressure  
Sea Level Pressure 29.64 in    
Wind  
Wind Speed 3 mph (ESE)    
Max Wind Speed 10 mph    
Max Gust Speed 13 mph    
Visibility 6 miles    
Events Rain , Thunderstorm    
Averages and records for this station are not official NWS values.
T = Trace of Precipitation, MM = Missing Value Source: NWS Daily Summary

Daily Weather History Graph

Daily Weather History Graph

Search for Another Location

Airport or City:

Trip Planner

Search our weather history database for the weather conditions in past years. The results will help you decide how hot, cold, wet, or windy it might be!

Date:

Astronomy

Jul. 08, 2013 Rise Set
Actual Time 3:30 AM AKDT 12:18 AM AKDT
Civil Twilight Sun does not rise Sun does not rise
Nautical Twilight Sun does not rise Sun does not rise
Astronomical Twilight Sun does not rise Sun does not rise
Moon 5:16 AM AKDT (7/8) 11:04 PM AKDT (7/8)
Length of Visible Light 24h 00m
Length of Day
20h 47m
New Moon, 0% of the Moon is Illuminated
Jul 8
New Moon
Jul 15
First Quarter
Jul 22
Full
Jul 29
Last Quarter
Aug 6
New

Hourly Weather History & Observations

Time (AKDT) Temp. Dew Point Humidity Pressure Visibility Wind Dir Wind Speed Gust Speed Precip Events Conditions
12:56 AM 61.0 °F 46.0 °F 58% 29.56 in 6.0 mi WNW 3.5 mph - N/A   Haze
1:56 AM 57.0 °F 46.9 °F 69% 29.57 in 4.0 mi Calm Calm - 0.00 in   Haze
2:22 AM 55.4 °F 46.4 °F 72% 29.57 in 2.5 mi ENE 3.5 mph - N/A   Haze
2:44 AM 53.6 °F 46.4 °F 77% 29.57 in 1.8 mi East 4.6 mph - N/A   Haze
2:56 AM 53.1 °F 46.0 °F 77% 29.58 in 1.8 mi ENE 4.6 mph - N/A   Haze
3:54 AM 53.6 °F 46.4 °F 77% 29.58 in 0.8 mi Calm Calm - N/A   Haze
3:56 AM 53.1 °F 46.9 °F 80% 29.59 in 0.8 mi Calm Calm - N/A   Haze
4:56 AM 50.0 °F 46.0 °F 86% 29.60 in 0.8 mi Calm Calm - N/A   Clear
5:56 AM 48.9 °F 45.0 °F 86% 29.62 in 0.8 mi Calm Calm - N/A   Clear
6:26 AM 50.0 °F 44.6 °F 82% 29.61 in 1.0 mi ENE 3.5 mph - N/A   Smoke
6:55 AM 51.8 °F 46.4 °F 82% 29.62 in 0.8 mi East 4.6 mph - N/A   Smoke
7:44 AM 51.8 °F 46.4 °F 82% 29.62 in 1.0 mi Calm Calm - N/A   Smoke
7:55 AM 53.6 °F 46.4 °F 77% 29.63 in 1.2 mi Calm Calm - N/A   Smoke
8:16 AM 55.4 °F 46.4 °F 72% 29.62 in 4.0 mi WNW 5.8 mph - N/A   Smoke
8:55 AM 55.4 °F 46.4 °F 72% 29.63 in 6.0 mi NW 4.6 mph - N/A   Smoke
9:55 AM 57.2 °F 46.4 °F 67% 29.63 in 7.0 mi NW 4.6 mph - N/A   Mostly Cloudy
10:55 AM 59.0 °F 46.4 °F 63% 29.63 in 7.0 mi West 5.8 mph - N/A   Mostly Cloudy
11:55 AM 60.8 °F 46.4 °F 59% 29.64 in 10.0 mi West 5.8 mph - N/A   Mostly Cloudy
12:55 PM 62.6 °F 46.4 °F 55% 29.64 in 7.0 mi West 5.8 mph - N/A   Mostly Cloudy
1:55 PM 62.6 °F 46.4 °F 55% 29.64 in 10.0 mi Calm Calm - N/A   Mostly Cloudy
2:55 PM 64.4 °F 46.4 °F 52% 29.64 in 10.0 mi South 6.9 mph 12.7 mph N/A   Mostly Cloudy
3:55 PM 62.6 °F 44.6 °F 52% 29.65 in 10.0 mi SSW 9.2 mph - N/A   Mostly Cloudy
4:05 PM 59.0 °F 46.4 °F 63% 29.64 in 7.0 mi SSW 9.2 mph - N/A Rain Light Rain Showers
4:35 PM 55.4 °F 48.2 °F 77% 29.65 in 6.0 mi NE 9.2 mph - N/A Rain , Thunderstorm Light Thunderstorms and Rain
4:55 PM 55.4 °F 50.0 °F 82% 29.66 in 6.0 mi Calm Calm - N/A Rain Light Rain Showers
5:55 PM 57.2 °F 51.8 °F 82% 29.67 in 7.0 mi South 3.5 mph - N/A Rain Light Rain Showers
6:08 PM 59.0 °F 51.8 °F 77% 29.66 in 7.0 mi South 5.8 mph - N/A   Mostly Cloudy
6:55 PM 57.2 °F 51.8 °F 82% 29.67 in 6.0 mi SW 10.4 mph - N/A Rain Light Rain Showers
7:55 PM 55.4 °F 51.8 °F 88% 29.68 in 6.0 mi SSE 4.6 mph - N/A Rain Light Rain Showers
8:55 PM 55.4 °F 53.6 °F 94% 29.70 in 6.0 mi East 3.5 mph - N/A Rain Light Rain Showers
9:20 PM 55.4 °F 53.6 °F 94% 29.69 in 7.0 mi East 3.5 mph - N/A   Overcast
9:55 PM 55.4 °F 53.6 °F 94% 29.70 in 7.0 mi ENE 5.8 mph - N/A   Overcast
10:55 PM 55.4 °F 53.6 °F 94% 29.72 in 7.0 mi ENE 3.5 mph - N/A   Overcast
10:56 PM 55.0 °F 53.1 °F 93% 29.72 in 10.0 mi NE 3.5 mph - 0.00 in   Overcast
11:12 PM 55.4 °F 53.6 °F 94% 29.72 in 10.0 mi Calm Calm - N/A   Overcast
11:55 PM 55.4 °F 53.6 °F 94% 29.73 in 7.0 mi ESE 3.5 mph - N/A   Overcast
11:56 PM 55.0 °F 53.1 °F 93% 29.73 in 10.0 mi ESE 4.6 mph - 0.01 in Rain Light Rain